Time,TemperatureF,DewpointF,PressureIn,WindDirection,WindDirectionDegrees,WindSpeedMPH,WindSpeedGustMPH,Humidity,HourlyPrecipIn,Conditions,Clouds,dailyrainin,SoftwareType,DateUTC
2013-02-19 00:02:00,44.6,35.5,29.77,WSW,247,13.6,18.8,70,0.00,,,0.00,WUHU21623XXSP,2013-02-19 08:02:00,
2013-02-19 00:07:00,44.6,35.1,29.77,WSW,247,14.8,20.1,69,0.00,,,0.00,WUHU21623XXSP,2013-02-19 08:07:00,
2013-02-19 00:12:00,44.6,35.1,29.77,WSW,247,17.0,20.1,69,0.00,,,0.00,WUHU21623XXSP,2013-02-19 08:12:00,
2013-02-19 00:17:00,44.6,34.8,29.77,WSW,237,14.2,18.3,68,0.00,,,0.00,WUHU21623XXSP,2013-02-19 08:17:00,
2013-02-19 00:22:00,44.4,34.6,29.77,WSW,247,13.6,18.3,68,0.00,,,0.00,WUHU21623XXSP,2013-02-19 08:22:00,
2013-02-19 00:27:00,44.2,34.0,29.77,SW,225,11.9,17.0,67,0.00,,,0.00,WUHU21623XXSP,2013-02-19 08:27:00,
2013-02-19 00:32:00,44.2,34.0,29.77,SW,236,12.5,17.0,67,0.00,,,0.00,WUHU21623XXSP,2013-02-19 08:32:00,
2013-02-19 00:37:00,44.2,34.0,29.77,SW,225,15.0,18.3,67,0.00,,,0.00,WUHU21623XXSP,2013-02-19 08:37:00,
2013-02-19 00:42:00,44.2,33.7,29.77,SW,232,13.2,18.3,66,0.00,,,0.00,WUHU21623XXSP,2013-02-19 08:42:00,
2013-02-19 00:47:00,44.2,33.7,29.77,WSW,247,11.6,21.3,66,0.00,,,0.00,WUHU21623XXSP,2013-02-19 08:47:00,
2013-02-19 00:52:00,44.2,33.7,29.77,WSW,247,10.1,21.3,66,0.00,,,0.00,WUHU21623XXSP,2013-02-19 08:52:00,
2013-02-19 00:57:00,44.2,33.7,29.77,WSW,247,10.1,17.4,66,0.00,,,0.00,WUHU21623XXSP,2013-02-19 08:57:00,
2013-02-19 01:02:00,44.6,34.0,29.78,WSW,247,15.9,15.9,66,0.00,,,0.00,WUHU21623XXSP,2013-02-19 09:02:00,
2013-02-19 01:07:00,44.8,34.2,29.78,WSW,247,15.2,17.4,66,0.00,,,0.00,WUHU21623XXSP,2013-02-19 09:07:00,
2013-02-19 01:12:00,44.8,34.2,29.78,WSW,247,13.2,17.4,66,0.00,,,0.00,WUHU21623XXSP,2013-02-19 09:12:00,
2013-02-19 01:17:00,44.6,34.0,29.78,WSW,247,8.9,13.6,66,0.00,,,0.00,WUHU21623XXSP,2013-02-19 09:17:00,
2013-02-19 01:22:00,44.4,33.8,29.78,WSW,247,11.4,15.4,66,0.00,,,0.00,WUHU21623XXSP,2013-02-19 09:22:00,
2013-02-19 01:27:00,44.2,33.7,29.77,West,270,13.6,17.4,66,0.00,,,0.00,WUHU21623XXSP,2013-02-19 09:27:00,
2013-02-19 01:32:00,44.2,33.3,29.77,WSW,253,13.2,17.9,65,0.00,,,0.00,WUHU21623XXSP,2013-02-19 09:32:00,
2013-02-19 01:37:00,44.2,33.3,29.77,WSW,247,9.2,17.9,65,0.00,,,0.00,WUHU21623XXSP,2013-02-19 09:37:00,
2013-02-19 01:42:00,44.2,33.3,29.77,WSW,247,8.7,13.4,65,0.00,,,0.00,WUHU21623XXSP,2013-02-19 09:42:00,
2013-02-19 01:47:00,44.2,33.3,29.77,WSW,247,7.2,12.8,65,0.00,,,0.00,WUHU21623XXSP,2013-02-19 09:47:00,
2013-02-19 01:52:00,44.2,33.3,29.77,WSW,247,6.3,11.2,65,0.00,,,0.00,WUHU21623XXSP,2013-02-19 09:52:00,
2013-02-19 01:57:00,44.2,33.3,29.77,WSW,247,8.9,13.4,65,0.00,,,0.00,WUHU21623XXSP,2013-02-19 09:57:00,
2013-02-19 02:02:00,44.2,33.3,29.77,SW,225,7.6,13.4,65,0.00,,,0.00,WUHU21623XXSP,2013-02-19 10:02:00,
2013-02-19 02:07:00,44.2,33.7,29.77,SW,225,9.6,12.1,66,0.00,,,0.00,WUHU21623XXSP,2013-02-19 10:07:00,
2013-02-19 02:12:00,44.2,33.7,29.76,SW,225,5.8,12.1,66,0.00,,,0.00,WUHU21623XXSP,2013-02-19 10:12:00,
2013-02-19 02:17:00,44.0,33.5,29.76,SW,225,5.6,10.1,66,0.00,,,0.00,WUHU21623XXSP,2013-02-19 10:17:00,
2013-02-19 02:22:00,44.0,33.5,29.76,SW,225,7.6,10.1,66,0.00,,,0.00,WUHU21623XXSP,2013-02-19 10:22:00,
2013-02-19 02:27:00,44.0,33.5,29.76,SW,225,4.9,8.3,66,0.00,,,0.00,WUHU21623XXSP,2013-02-19 10:27:00,
2013-02-19 02:32:00,44.0,33.5,29.76,SSW,202,9.2,10.3,66,0.00,,,0.00,WUHU21623XXSP,2013-02-19 10:32:00,
2013-02-19 02:37:00,43.9,33.4,29.76,SSW,202,7.8,11.4,66,0.00,,,0.00,WUHU21623XXSP,2013-02-19 10:37:00,
2013-02-19 02:42:00,43.7,33.6,29.75,SW,225,8.5,11.9,67,0.00,,,0.00,WUHU21623XXSP,2013-02-19 10:42:00,
2013-02-19 02:47:00,43.7,33.6,29.75,SW,225,3.4,11.9,67,0.00,,,0.00,WUHU21623XXSP,2013-02-19 10:47:00,
2013-02-19 02:52:00,43.7,33.6,29.75,SW,225,5.6,11.9,67,0.00,,,0.00,WUHU21623XXSP,2013-02-19 10:52:00,
2013-02-19 02:57:00,43.7,33.9,29.75,SW,225,4.7,7.6,68,0.00,,,0.00,WUHU21623XXSP,2013-02-19 10:57:00,
2013-02-19 03:02:00,43.7,33.9,29.75,WSW,247,8.3,10.1,68,0.00,,,0.00,WUHU21623XXSP,2013-02-19 11:02:00,
2013-02-19 03:07:00,44.0,34.2,29.74,SW,225,8.7,10.3,68,0.00,,,0.00,WUHU21623XXSP,2013-02-19 11:07:00,
2013-02-19 03:12:00,44.0,34.2,29.74,SW,225,6.5,10.3,68,0.00,,,0.00,WUHU21623XXSP,2013-02-19 11:12:00,
2013-02-19 03:17:00,44.0,34.2,29.74,WSW,247,9.6,11.6,68,0.00,,,0.00,WUHU21623XXSP,2013-02-19 11:17:00,
2013-02-19 03:22:00,43.7,33.9,29.74,SW,225,9.6,11.6,68,0.00,,,0.00,WUHU21623XXSP,2013-02-19 11:22:00,
2013-02-19 03:27:00,43.7,34.3,29.74,SW,225,9.2,12.1,69,0.00,,,0.00,WUHU21623XXSP,2013-02-19 11:27:00,
2013-02-19 03:32:00,43.7,34.3,29.74,SW,225,7.4,12.1,69,0.00,,,0.00,WUHU21623XXSP,2013-02-19 11:32:00,
2013-02-19 03:37:00,43.7,34.3,29.74,SW,225,4.7,13.4,69,0.00,,,0.00,WUHU21623XXSP,2013-02-19 11:37:00,
2013-02-19 03:42:00,43.5,34.4,29.74,SW,225,6.9,13.4,70,0.00,,,0.00,WUHU21623XXSP,2013-02-19 11:42:00,
2013-02-19 03:47:00,43.7,34.6,29.74,SW,225,6.0,9.8,70,0.00,,,0.00,WUHU21623XXSP,2013-02-19 11:47:00,
2013-02-19 03:52:00,43.7,34.6,29.73,SW,225,5.8,12.1,70,0.00,,,0.00,WUHU21623XXSP,2013-02-19 11:52:00,
2013-02-19 03:57:00,43.5,34.4,29.73,SSW,202,6.3,12.1,70,0.00,,,0.00,WUHU21623XXSP,2013-02-19 11:57:00,
2013-02-19 04:02:00,43.3,34.6,29.73,SSW,202,5.6,13.2,71,0.00,,,0.00,WUHU21623XXSP,2013-02-19 12:02:00,
2013-02-19 04:07:00,43.1,34.4,29.73,SSW,202,5.6,13.2,71,0.00,,,0.00,WUHU21623XXSP,2013-02-19 12:07:00,
2013-02-19 04:12:00,43.1,34.4,29.73,SSW,202,5.8,9.6,71,0.00,,,0.00,WUHU21623XXSP,2013-02-19 12:12:00,
2013-02-19 04:17:00,43.1,34.8,29.73,SW,225,3.6,8.3,72,0.00,,,0.00,WUHU21623XXSP,2013-02-19 12:17:00,
2013-02-19 04:22:00,43.1,34.8,29.73,SW,225,6.0,8.3,72,0.00,,,0.00,WUHU21623XXSP,2013-02-19 12:22:00,
2013-02-19 04:27:00,43.0,34.7,29.73,SSW,202,7.4,13.2,72,0.00,,,0.00,WUHU21623XXSP,2013-02-19 12:27:00,
2013-02-19 04:32:00,43.0,35.0,29.73,SW,225,11.6,15.7,73,0.00,,,0.00,WUHU21623XXSP,2013-02-19 12:32:00,
2013-02-19 04:37:00,43.0,35.0,29.73,SW,225,7.4,15.7,73,0.00,,,0.00,WUHU21623XXSP,2013-02-19 12:37:00,
2013-02-19 04:42:00,43.0,35.0,29.73,SW,225,7.6,11.9,73,0.00,,,0.00,WUHU21623XXSP,2013-02-19 12:42:00,
2013-02-19 04:47:00,43.0,35.3,29.73,SW,225,5.8,11.9,74,0.00,,,0.00,WUHU21623XXSP,2013-02-19 12:47:00,
2013-02-19 04:52:00,43.0,35.3,29.73,SW,225,5.8,11.9,74,0.00,,,0.00,WUHU21623XXSP,2013-02-19 12:52:00,
2013-02-19 04:57:00,43.0,35.3,29.73,SSW,202,8.1,10.5,74,0.00,,,0.00,WUHU21623XXSP,2013-02-19 12:57:00,
2013-02-19 05:02:00,42.8,35.2,29.73,SW,225,5.4,10.7,74,0.00,,,0.00,WUHU21623XXSP,2013-02-19 13:02:00,
2013-02-19 05:07:00,42.8,35.2,29.73,SW,225,5.6,13.2,74,0.00,,,0.00,WUHU21623XXSP,2013-02-19 13:07:00,
2013-02-19 05:12:00,42.8,35.5,29.73,SSW,202,10.7,15.2,75,0.00,,,0.00,WUHU21623XXSP,2013-02-19 13:12:00,
2013-02-19 05:17:00,43.0,35.7,29.73,SW,225,7.8,15.2,75,0.00,,,0.00,WUHU21623XXSP,2013-02-19 13:17:00,
2013-02-19 05:22:00,43.0,35.7,29.72,SSW,202,6.5,13.4,75,0.00,,,0.00,WUHU21623XXSP,2013-02-19 13:22:00,
2013-02-19 05:27:00,43.0,35.7,29.72,SSW,202,5.6,13.2,75,0.00,,,0.00,WUHU21623XXSP,2013-02-19 13:27:00,
2013-02-19 05:32:00,42.8,35.5,29.72,SSW,202,11.0,19.2,75,0.00,,,0.00,WUHU21623XXSP,2013-02-19 13:32:00,
2013-02-19 05:37:00,42.8,35.5,29.72,South,180,11.2,19.2,75,0.00,,,0.00,WUHU21623XXSP,2013-02-19 13:37:00,
2013-02-19 05:42:00,42.6,35.6,29.72,South,180,10.3,18.3,76,0.00,,,0.00,WUHU21623XXSP,2013-02-19 13:42:00,
2013-02-19 05:47:00,42.6,35.6,29.72,SSW,202,5.1,15.4,76,0.00,,,0.00,WUHU21623XXSP,2013-02-19 13:47:00,
2013-02-19 05:52:00,42.4,35.4,29.72,South,180,9.8,13.6,76,0.00,,,0.00,WUHU21623XXSP,2013-02-19 13:52:00,
2013-02-19 05:57:00,42.4,35.4,29.71,South,180,5.4,12.1,76,0.00,,,0.00,WUHU21623XXSP,2013-02-19 13:57:00,
2013-02-19 06:02:00,42.6,35.6,29.71,South,180,6.3,10.7,76,0.00,,,0.00,WUHU21623XXSP,2013-02-19 14:02:00,
2013-02-19 06:07:00,42.6,35.6,29.71,SSW,202,0.0,10.7,76,0.00,,,0.00,WUHU21623XXSP,2013-02-19 14:07:00,
2013-02-19 06:12:00,42.6,35.6,29.71,South,180,4.5,6.7,76,0.00,,,0.00,WUHU21623XXSP,2013-02-19 14:12:00,
2013-02-19 06:17:00,42.6,35.6,29.71,South,180,0.0,6.5,76,0.00,,,0.00,WUHU21623XXSP,2013-02-19 14:17:00,
2013-02-19 06:22:00,43.0,36.0,29.71,South,180,4.5,5.6,76,0.00,,,0.00,WUHU21623XXSP,2013-02-19 14:22:00,
2013-02-19 06:27:00,43.0,35.7,29.70,South,180,5.6,7.4,75,0.00,,,0.00,WUHU21623XXSP,2013-02-19 14:27:00,
2013-02-19 06:32:00,43.0,35.7,29.70,South,180,0.0,7.4,75,0.00,,,0.00,WUHU21623XXSP,2013-02-19 14:32:00,
2013-02-19 06:37:00,43.0,35.7,29.70,South,180,3.6,4.7,75,0.00,,,0.00,WUHU21623XXSP,2013-02-19 14:37:00,
2013-02-19 06:42:00,42.8,35.5,29.70,South,180,0.0,4.7,75,0.00,,,0.00,WUHU21623XXSP,2013-02-19 14:42:00,
2013-02-19 06:47:00,42.6,35.3,29.69,SSE,157,0.0,4.7,75,0.00,,,0.00,WUHU21623XXSP,2013-02-19 14:47:00,
2013-02-19 06:52:00,42.6,35.3,29.69,South,180,0.0,0.0,75,0.00,,,0.00,WUHU21623XXSP,2013-02-19 14:52:00,
2013-02-19 06:57:00,42.8,35.5,29.69,South,180,0.0,0.0,75,0.00,,,0.00,WUHU21623XXSP,2013-02-19 14:57:00,
2013-02-19 07:02:00,42.8,35.2,29.69,SSW,202,0.0,0.0,74,0.00,,,0.00,WUHU21623XXSP,2013-02-19 15:02:00,
2013-02-19 07:07:00,43.0,35.3,29.69,SW,225,0.0,4.3,74,0.00,,,0.00,WUHU21623XXSP,2013-02-19 15:07:00,
2013-02-19 07:12:00,43.0,35.3,29.69,SW,225,8.7,8.7,74,0.00,,,0.00,WUHU21623XXSP,2013-02-19 15:12:00,
2013-02-19 07:17:00,43.0,35.3,29.69,SSW,202,3.1,11.0,74,0.00,,,0.00,WUHU21623XXSP,2013-02-19 15:17:00,
2013-02-19 07:22:00,43.0,35.0,29.68,SW,225,4.9,11.6,73,0.00,,,0.00,WUHU21623XXSP,2013-02-19 15:22:00,
2013-02-19 07:27:00,43.1,35.1,29.68,SW,225,6.3,11.6,73,0.00,,,0.00,WUHU21623XXSP,2013-02-19 15:27:00,
2013-02-19 07:32:00,43.1,35.1,29.69,SW,225,6.0,8.9,73,0.00,,,0.00,WUHU21623XXSP,2013-02-19 15:32:00,
2013-02-19 07:37:00,43.3,35.3,29.68,SW,225,6.0,11.0,73,0.00,,,0.00,WUHU21623XXSP,2013-02-19 15:37:00,
2013-02-19 07:42:00,43.3,35.3,29.69,SW,225,8.3,11.2,73,0.00,,,0.00,WUHU21623XXSP,2013-02-19 15:42:00,
2013-02-19 07:47:00,43.3,35.6,29.69,SW,225,8.3,11.2,74,0.00,,,0.00,WUHU21623XXSP,2013-02-19 15:47:00,
2013-02-19 07:52:00,43.3,35.6,29.68,SW,225,4.7,10.5,74,0.00,,,0.00,WUHU21623XXSP,2013-02-19 15:52:00,
2013-02-19 07:57:00,43.3,36.0,29.68,SW,225,7.4,10.5,75,0.00,,,0.00,WUHU21623XXSP,2013-02-19 15:57:00,
2013-02-19 08:02:00,43.3,36.0,29.68,SW,225,6.3,9.8,75,0.00,,,0.00,WUHU21623XXSP,2013-02-19 16:02:00,
2013-02-19 08:07:00,43.3,36.0,29.68,SW,225,4.7,9.2,75,0.00,,,0.00,WUHU21623XXSP,2013-02-19 16:07:00,
2013-02-19 08:12:00,43.1,35.8,29.68,SW,225,3.4,8.5,75,0.00,,,0.00,WUHU21623XXSP,2013-02-19 16:12:00,
2013-02-19 08:17:00,43.1,36.1,29.68,SW,225,4.7,6.0,76,0.00,,,0.00,WUHU21623XXSP,2013-02-19 16:17:00,
2013-02-19 08:22:00,43.1,36.1,29.68,SW,225,6.0,10.1,76,0.00,,,0.00,WUHU21623XXSP,2013-02-19 16:22:00,
2013-02-19 08:27:00,43.1,36.1,29.67,SSW,202,7.4,10.1,76,0.00,,,0.00,WUHU21623XXSP,2013-02-19 16:27:00,
2013-02-19 08:32:00,43.1,36.1,29.67,SSW,202,10.1,11.0,76,0.00,,,0.00,WUHU21623XXSP,2013-02-19 16:32:00,
2013-02-19 08:37:00,43.3,36.3,29.66,SSW,202,10.7,11.0,76,0.00,,,0.00,WUHU21623XXSP,2013-02-19 16:37:00,
2013-02-19 08:42:00,43.3,36.3,29.66,SW,225,7.4,11.2,76,0.00,,,0.00,WUHU21623XXSP,2013-02-19 16:42:00,
2013-02-19 08:47:00,43.5,36.5,29.66,SSW,202,8.3,13.2,76,0.00,,,0.00,WUHU21623XXSP,2013-02-19 16:47:00,
2013-02-19 08:52:00,43.7,36.7,29.66,SW,225,8.5,13.2,76,0.00,,,0.00,WUHU21623XXSP,2013-02-19 16:52:00,
2013-02-19 08:57:00,43.9,36.9,29.66,SSW,202,4.0,11.6,76,0.00,,,0.00,WUHU21623XXSP,2013-02-19 16:57:00,
2013-02-19 09:02:00,44.0,37.0,29.66,SW,225,7.6,10.5,76,0.00,,,0.00,WUHU21623XXSP,2013-02-19 17:02:00,
2013-02-19 09:07:00,44.2,36.8,29.66,SW,225,10.1,11.6,75,0.00,,,0.00,WUHU21623XXSP,2013-02-19 17:07:00,
2013-02-19 09:12:00,44.2,36.8,29.66,SSW,202,12.8,13.2,75,0.00,,,0.00,WUHU21623XXSP,2013-02-19 17:12:00,
2013-02-19 09:17:00,44.6,36.9,29.65,SSW,202,18.6,19.9,74,0.00,,,0.00,WUHU21623XXSP,2013-02-19 17:17:00,
2013-02-19 09:22:00,44.8,37.1,29.64,SSW,202,20.6,20.6,74,0.00,,,0.00,WUHU21623XXSP,2013-02-19 17:22:00,
2013-02-19 09:27:00,45.1,37.0,29.64,SSW,202,15.2,21.3,73,0.00,,,0.00,WUHU21623XXSP,2013-02-19 17:27:00,
2013-02-19 09:32:00,45.1,37.0,29.64,SSW,195,17.1,24.2,73,0.00,,,0.00,WUHU21623XXSP,2013-02-19 17:32:00,
2013-02-19 09:37:00,45.5,37.1,29.64,SW,225,8.5,24.2,72,0.00,,,0.00,WUHU21623XXSP,2013-02-19 17:37:00,
2013-02-19 09:42:00,46.0,37.6,29.64,SW,225,9.4,20.8,72,0.00,,,0.00,WUHU21623XXSP,2013-02-19 17:42:00,
2013-02-19 09:47:00,46.2,37.4,29.64,SSW,202,11.9,20.4,71,0.00,,,0.00,WUHU21623XXSP,2013-02-19 17:47:00,
2013-02-19 09:52:00,46.4,37.2,29.63,South,180,7.2,20.4,70,0.00,,,0.00,WUHU21623XXSP,2013-02-19 17:52:00,
2013-02-19 09:57:00,46.6,37.4,29.63,SSE,157,13.0,21.7,70,0.00,,,0.00,WUHU21623XXSP,2013-02-19 17:57:00,
2013-02-19 10:02:00,46.7,37.5,29.63,SSW,202,21.3,21.7,70,0.00,,,0.00,WUHU21623XXSP,2013-02-19 18:02:00,
2013-02-19 10:07:00,46.7,37.5,29.63,SSW,202,15.0,21.3,70,0.00,,,0.00,WUHU21623XXSP,2013-02-19 18:07:00,
2013-02-19 10:12:00,46.7,37.2,29.63,SSW,202,16.8,18.1,69,0.00,,,0.00,WUHU21623XXSP,2013-02-19 18:12:00,
2013-02-19 10:17:00,46.7,37.2,29.63,SSW,202,10.3,17.0,69,0.00,,,0.00,WUHU21623XXSP,2013-02-19 18:17:00,
2013-02-19 10:22:00,46.7,36.8,29.63,SW,225,7.8,13.4,68,0.00,,,0.00,WUHU21623XXSP,2013-02-19 18:22:00,
2013-02-19 10:27:00,46.7,37.2,29.63,SSW,202,10.3,12.8,69,0.00,,,0.00,WUHU21623XXSP,2013-02-19 18:27:00,
2013-02-19 10:32:00,46.7,37.2,29.63,WSW,247,9.8,12.3,69,0.00,,,0.00,WUHU21623XXSP,2013-02-19 18:32:00,
2013-02-19 10:37:00,46.4,37.2,29.63,WSW,247,9.6,12.5,70,0.00,,,0.00,WUHU21623XXSP,2013-02-19 18:37:00,
2013-02-19 10:42:00,46.2,37.4,29.63,WSW,247,11.2,12.5,71,0.00,,,0.00,WUHU21623XXSP,2013-02-19 18:42:00,
2013-02-19 10:47:00,46.2,37.4,29.63,WNW,292,10.5,12.5,71,0.00,,,0.00,WUHU21623XXSP,2013-02-19 18:47:00,
2013-02-19 10:52:00,46.0,37.6,29.63,West,264,10.8,13.4,72,0.00,,,0.00,WUHU21623XXSP,2013-02-19 18:52:00,
2013-02-19 10:57:00,45.8,37.4,29.63,WNW,292,22.1,33.3,72,0.00,,,0.00,WUHU21623XXSP,2013-02-19 18:57:00,
2013-02-19 11:02:00,45.5,37.1,29.64,WNW,287,22.1,33.3,72,0.00,,,0.00,WUHU21623XXSP,2013-02-19 19:02:00,
2013-02-19 11:07:00,45.1,36.7,29.64,West,270,12.5,29.8,72,0.00,,,0.00,WUHU21623XXSP,2013-02-19 19:07:00,
2013-02-19 11:12:00,44.8,36.4,29.64,West,277,16.8,22.3,72,0.00,,,0.00,WUHU21623XXSP,2013-02-19 19:12:00,
2013-02-19 11:17:00,44.2,35.8,29.64,West,270,13.4,20.8,72,0.00,,,0.00,WUHU21623XXSP,2013-02-19 19:17:00,
2013-02-19 11:22:00,44.0,35.6,29.64,WSW,247,12.5,17.0,72,0.00,,,0.00,WUHU21623XXSP,2013-02-19 19:22:00,
2013-02-19 11:27:00,43.7,35.7,29.64,WSW,247,12.1,14.8,73,0.00,,,0.00,WUHU21623XXSP,2013-02-19 19:27:00,
2013-02-19 11:32:00,43.3,35.3,29.64,West,270,10.1,17.2,73,0.00,,,0.00,WUHU21623XXSP,2013-02-19 19:32:00,
2013-02-19 11:37:00,43.1,35.1,29.63,SW,225,9.4,17.2,73,0.00,,,0.00,WUHU21623XXSP,2013-02-19 19:37:00,
2013-02-19 11:42:00,42.8,35.2,29.63,SW,225,12.3,13.2,74,0.00,,,0.00,WUHU21623XXSP,2013-02-19 19:42:00,
2013-02-19 11:47:00,42.4,34.8,29.63,SW,225,7.6,13.2,74,0.00,,,0.00,WUHU21623XXSP,2013-02-19 19:47:00,
2013-02-19 11:52:00,42.4,35.1,29.63,SW,225,6.3,10.3,75,0.00,,,0.00,WUHU21623XXSP,2013-02-19 19:52:00,
2013-02-19 11:57:00,42.1,34.8,29.63,SW,225,5.1,8.9,75,0.00,,,0.00,WUHU21623XXSP,2013-02-19 19:57:00,
2013-02-19 12:02:00,41.9,34.6,29.63,South,180,6.5,6.9,75,0.00,,,0.00,WUHU21623XXSP,2013-02-19 20:02:00,
2013-02-19 12:07:00,41.9,34.9,29.62,SW,225,9.4,10.7,76,0.00,,,0.00,WUHU21623XXSP,2013-02-19 20:07:00,
2013-02-19 12:12:00,42.2,35.2,29.63,SW,225,6.7,12.5,76,0.00,,,0.00,WUHU21623XXSP,2013-02-19 20:12:00,
2013-02-19 12:17:00,42.2,35.2,29.62,SW,225,8.7,12.5,76,0.00,,,0.00,WUHU21623XXSP,2013-02-19 20:17:00,
2013-02-19 12:22:00,42.1,35.1,29.62,West,270,3.8,10.1,76,0.00,,,0.00,WUHU21623XXSP,2013-02-19 20:22:00,
2013-02-19 12:27:00,41.7,34.7,29.62,SW,225,5.4,8.9,76,0.00,,,0.00,WUHU21623XXSP,2013-02-19 20:27:00,
2013-02-19 12:32:00,41.5,34.5,29.61,SSW,202,0.0,7.4,76,0.00,,,0.00,WUHU21623XXSP,2013-02-19 20:32:00,
2013-02-19 12:37:00,41.5,34.5,29.61,SSW,202,4.7,7.4,76,0.00,,,0.00,WUHU21623XXSP,2013-02-19 20:37:00,
2013-02-19 12:42:00,41.5,34.9,29.61,SSE,157,2.5,7.2,77,0.00,,,0.00,WUHU21623XXSP,2013-02-19 20:42:00,
2013-02-19 12:47:00,41.5,34.9,29.61,SSE,157,2.2,7.2,77,0.00,,,0.00,WUHU21623XXSP,2013-02-19 20:47:00,
2013-02-19 12:52:00,41.5,35.2,29.61,SSE,157,0.0,3.4,78,0.00,,,0.00,WUHU21623XXSP,2013-02-19 20:52:00,
2013-02-19 12:57:00,41.5,35.2,29.61,SSE,157,0.0,3.1,78,0.00,,,0.00,WUHU21623XXSP,2013-02-19 20:57:00,
2013-02-19 13:02:00,41.7,35.4,29.60,SSE,157,2.0,5.4,78,0.00,,,0.00,WUHU21623XXSP,2013-02-19 21:02:00,
2013-02-19 13:07:00,41.9,35.6,29.59,SSE,157,5.1,5.4,78,0.00,,,0.00,WUHU21623XXSP,2013-02-19 21:07:00,
2013-02-19 13:12:00,41.9,35.6,29.60,South,180,2.9,5.1,78,0.00,,,0.00,WUHU21623XXSP,2013-02-19 21:12:00,
2013-02-19 13:17:00,42.1,35.8,29.61,WNW,292,8.5,9.2,78,0.00,,,0.00,WUHU21623XXSP,2013-02-19 21:17:00,
2013-02-19 13:22:00,42.2,35.9,29.62,West,270,13.4,30.4,78,0.00,,,0.00,WUHU21623XXSP,2013-02-19 21:22:00,
2013-02-19 13:27:00,41.9,35.3,29.61,West,270,10.1,30.4,77,0.00,,,0.00,WUHU21623XXSP,2013-02-19 21:27:00,
2013-02-19 13:32:00,41.2,34.3,29.61,WNW,292,12.3,17.7,76,0.00,,,0.00,WUHU21623XXSP,2013-02-19 21:32:00,
2013-02-19 13:37:00,40.6,33.4,29.60,West,270,6.0,17.7,75,0.00,,,0.00,WUHU21623XXSP,2013-02-19 21:37:00,
2013-02-19 13:42:00,40.1,32.9,29.62,West,270,9.2,12.3,75,0.00,,,0.00,WUHU21623XXSP,2013-02-19 21:42:00,
2013-02-19 13:47:00,40.1,32.9,29.62,West,270,8.9,11.6,75,0.00,,,0.00,WUHU21623XXSP,2013-02-19 21:47:00,
2013-02-19 13:52:00,39.9,33.0,29.61,SW,225,8.1,12.5,76,0.00,,,0.00,WUHU21623XXSP,2013-02-19 21:52:00,
2013-02-19 13:57:00,39.7,32.8,29.61,SW,225,5.1,12.5,76,0.00,,,0.00,WUHU21623XXSP,2013-02-19 21:57:00,
2013-02-19 14:02:00,39.5,32.6,29.60,SW,225,8.7,9.8,76,0.00,,,0.00,WUHU21623XXSP,2013-02-19 22:02:00,
2013-02-19 14:07:00,39.5,32.9,29.60,WSW,247,7.8,10.3,77,0.00,,,0.00,WUHU21623XXSP,2013-02-19 22:07:00,
2013-02-19 14:12:00,39.5,32.9,29.59,South,180,9.8,10.3,77,0.00,,,0.00,WUHU21623XXSP,2013-02-19 22:12:00,
2013-02-19 14:17:00,39.5,32.9,29.59,SSW,202,7.6,12.1,77,0.00,,,0.00,WUHU21623XXSP,2013-02-19 22:17:00,
2013-02-19 14:22:00,39.5,32.9,29.59,SW,225,9.8,12.1,77,0.00,,,0.00,WUHU21623XXSP,2013-02-19 22:22:00,
2013-02-19 14:27:00,39.5,33.2,29.59,SW,225,12.5,14.8,78,0.00,,,0.00,WUHU21623XXSP,2013-02-19 22:27:00,
2013-02-19 14:32:00,39.7,33.4,29.59,SSW,202,7.6,14.8,78,0.00,,,0.00,WUHU21623XXSP,2013-02-19 22:32:00,
2013-02-19 14:37:00,40.1,33.8,29.58,SW,225,8.5,14.8,78,0.00,,,0.00,WUHU21623XXSP,2013-02-19 22:37:00,
2013-02-19 14:42:00,40.4,34.4,29.58,WSW,247,2.9,12.1,79,0.00,,,0.00,WUHU21623XXSP,2013-02-19 22:42:00,
2013-02-19 14:47:00,40.6,34.6,29.58,SSW,202,7.8,12.1,79,0.00,,,0.00,WUHU21623XXSP,2013-02-19 22:47:00,
2013-02-19 14:52:00,41.2,35.2,29.57,SW,215,8.1,14.8,79,0.00,,,0.00,WUHU21623XXSP,2013-02-19 22:52:00,
2013-02-19 14:57:00,41.5,35.2,29.57,WSW,247,11.0,14.8,78,0.00,,,0.00,WUHU21623XXSP,2013-02-19 22:57:00,
2013-02-19 15:02:00,41.7,35.4,29.57,SSW,202,10.3,13.4,78,0.00,,,0.00,WUHU21623XXSP,2013-02-19 23:02:00,
2013-02-19 15:07:00,41.9,35.6,29.57,SSW,202,6.9,13.4,78,0.00,,,0.00,WUHU21623XXSP,2013-02-19 23:07:00,
2013-02-19 15:12:00,42.2,35.6,29.57,SW,225,14.8,14.8,77,0.00,,,0.00,WUHU21623XXSP,2013-02-19 23:12:00,
2013-02-19 15:17:00,42.4,35.7,29.57,SW,225,17.2,17.2,77,0.00,,,0.00,WUHU21623XXSP,2013-02-19 23:17:00,
2013-02-19 15:22:00,42.4,35.4,29.57,SW,225,9.2,17.4,76,0.00,,,0.00,WUHU21623XXSP,2013-02-19 23:22:00,
2013-02-19 15:27:00,42.6,35.6,29.57,WSW,247,10.5,17.4,76,0.00,,,0.00,WUHU21623XXSP,2013-02-19 23:27:00,
2013-02-19 15:32:00,42.8,35.8,29.57,SW,225,12.8,16.6,76,0.00,,,0.00,WUHU21623XXSP,2013-02-19 23:32:00,
2013-02-19 15:37:00,43.0,36.0,29.57,SSW,202,14.8,16.8,76,0.00,,,0.00,WUHU21623XXSP,2013-02-19 23:37:00,
2013-02-19 15:42:00,43.0,36.0,29.57,SSW,211,12.0,17.2,76,0.00,,,0.00,WUHU21623XXSP,2013-02-19 23:42:00,
2013-02-19 15:47:00,43.0,35.7,29.56,SSW,202,12.1,17.2,75,0.00,,,0.00,WUHU21623XXSP,2013-02-19 23:47:00,
2013-02-19 15:52:00,43.0,35.7,29.56,SSW,202,6.7,17.0,75,0.00,,,0.00,WUHU21623XXSP,2013-02-19 23:52:00,
2013-02-19 15:57:00,43.0,35.7,29.56,WSW,247,8.5,12.8,75,0.00,,,0.00,WUHU21623XXSP,2013-02-19 23:57:00,
2013-02-19 16:02:00,43.0,35.7,29.57,NW,315,19.7,19.7,75,0.00,,,0.00,WUHU21623XXSP,2013-02-20 00:02:00,
2013-02-19 16:07:00,43.0,35.7,29.57,WNW,292,15.9,32.0,75,0.00,,,0.00,WUHU21623XXSP,2013-02-20 00:07:00,
2013-02-19 16:12:00,42.6,35.0,29.56,WNW,292,6.9,32.0,74,0.00,,,0.00,WUHU21623XXSP,2013-02-20 00:12:00,
2013-02-19 16:17:00,42.1,34.5,29.56,West,270,6.9,16.1,74,0.00,,,0.00,WUHU21623XXSP,2013-02-20 00:17:00,
2013-02-19 16:22:00,41.7,34.1,29.56,West,270,2.0,12.1,74,0.00,,,0.00,WUHU21623XXSP,2013-02-20 00:22:00,
2013-02-19 16:27:00,41.5,33.9,29.56,NW,315,7.8,8.5,74,0.00,,,0.00,WUHU21623XXSP,2013-02-20 00:27:00,
2013-02-19 16:32:00,41.5,34.2,29.55,NW,315,4.9,8.5,75,0.00,,,0.00,WUHU21623XXSP,2013-02-20 00:32:00,
2013-02-19 16:37:00,41.5,34.5,29.55,West,270,5.8,8.3,76,0.00,,,0.00,WUHU21623XXSP,2013-02-20 00:37:00,
2013-02-19 16:42:00,41.5,34.5,29.55,WNW,292,7.6,11.4,76,0.00,,,0.00,WUHU21623XXSP,2013-02-20 00:42:00,
2013-02-19 16:47:00,41.5,34.9,29.54,West,270,6.3,12.5,77,0.00,,,0.00,WUHU21623XXSP,2013-02-20 00:47:00,
2013-02-19 16:52:00,41.5,34.9,29.54,WSW,247,12.5,13.0,77,0.00,,,0.00,WUHU21623XXSP,2013-02-20 00:52:00,
2013-02-19 16:57:00,41.7,35.1,29.54,WSW,247,8.1,15.4,77,0.00,,,0.00,WUHU21623XXSP,2013-02-20 00:57:00,
2013-02-19 17:02:00,41.7,35.1,29.54,WSW,247,13.6,15.4,77,0.00,,,0.00,WUHU21623XXSP,2013-02-20 01:02:00,
2013-02-19 17:07:00,41.7,34.7,29.54,West,270,18.3,18.3,76,0.00,,,0.00,WUHU21623XXSP,2013-02-20 01:07:00,
2013-02-19 17:12:00,41.7,34.7,29.55,WSW,247,19.0,19.0,76,0.00,,,0.00,WUHU21623XXSP,2013-02-20 01:12:00,
2013-02-19 17:17:00,41.7,34.4,29.55,West,270,12.5,19.0,75,0.00,,,0.00,WUHU21623XXSP,2013-02-20 01:17:00,
2013-02-19 17:22:00,41.5,33.9,29.55,WSW,247,11.4,16.8,74,0.00,,,0.00,WUHU21623XXSP,2013-02-20 01:22:00,
2013-02-19 17:27:00,41.3,33.7,29.55,WSW,247,12.3,16.3,74,0.00,,,0.00,WUHU21623XXSP,2013-02-20 01:27:00,
2013-02-19 17:32:00,41.3,33.7,29.55,WSW,247,13.6,16.3,74,0.00,,,0.00,WUHU21623XXSP,2013-02-20 01:32:00,
2013-02-19 17:37:00,41.3,33.4,29.55,WSW,247,6.9,13.6,73,0.00,,,0.00,WUHU21623XXSP,2013-02-20 01:37:00,
2013-02-19 17:42:00,41.2,33.3,29.55,West,270,10.5,11.9,73,0.00,,,0.00,WUHU21623XXSP,2013-02-20 01:42:00,
2013-02-19 17:47:00,41.0,33.1,29.55,West,270,9.6,12.3,73,0.00,,,0.00,WUHU21623XXSP,2013-02-20 01:47:00,
2013-02-19 17:52:00,40.6,32.3,29.55,West,270,10.7,16.1,72,0.00,,,0.00,WUHU21623XXSP,2013-02-20 01:52:00,
2013-02-19 17:57:00,40.6,32.3,29.55,West,270,15.2,18.6,72,0.00,,,0.00,WUHU21623XXSP,2013-02-20 01:57:00,
2013-02-19 18:02:00,40.4,32.2,29.55,West,270,12.3,18.6,72,0.00,,,0.00,WUHU21623XXSP,2013-02-20 02:02:00,
2013-02-19 18:07:00,40.4,31.8,29.56,West,270,12.8,17.0,71,0.00,,,0.00,WUHU21623XXSP,2013-02-20 02:07:00,
2013-02-19 18:12:00,40.1,31.5,29.55,West,270,7.8,13.6,71,0.00,,,0.00,WUHU21623XXSP,2013-02-20 02:12:00,
2013-02-19 18:17:00,40.1,31.5,29.56,West,270,5.1,13.0,71,0.00,,,0.00,WUHU21623XXSP,2013-02-20 02:17:00,
2013-02-19 18:22:00,39.9,31.3,29.55,West,270,4.9,7.4,71,0.00,,,0.00,WUHU21623XXSP,2013-02-20 02:22:00,
2013-02-19 18:27:00,39.7,31.1,29.55,West,270,1.8,6.5,71,0.00,,,0.00,WUHU21623XXSP,2013-02-20 02:27:00,
2013-02-19 18:32:00,39.5,30.9,29.55,West,270,0.0,4.7,71,0.00,,,0.00,WUHU21623XXSP,2013-02-20 02:32:00,
2013-02-19 18:37:00,39.2,30.7,29.55,West,270,0.0,3.1,71,0.00,,,0.00,WUHU21623XXSP,2013-02-20 02:37:00,
2013-02-19 18:42:00,38.8,30.6,29.56,West,270,0.0,0.0,72,0.00,,,0.00,WUHU21623XXSP,2013-02-20 02:42:00,
2013-02-19 18:47:00,38.6,30.4,29.56,West,270,0.0,0.0,72,0.00,,,0.00,WUHU21623XXSP,2013-02-20 02:47:00,
2013-02-19 18:52:00,38.5,30.3,29.56,West,270,0.0,2.2,72,0.00,,,0.00,WUHU21623XXSP,2013-02-20 02:52:00,
2013-02-19 18:57:00,38.5,30.3,29.56,West,270,3.6,4.0,72,0.00,,,0.00,WUHU21623XXSP,2013-02-20 02:57:00,
2013-02-19 19:02:00,38.3,30.1,29.56,West,270,4.5,4.5,72,0.00,,,0.00,WUHU21623XXSP,2013-02-20 03:02:00,
2013-02-19 19:07:00,38.3,30.1,29.55,WNW,292,3.1,6.5,72,0.00,,,0.00,WUHU21623XXSP,2013-02-20 03:07:00,
2013-02-19 19:12:00,38.3,30.1,29.56,WNW,292,2.5,6.5,72,0.00,,,0.00,WUHU21623XXSP,2013-02-20 03:12:00,
2013-02-19 19:17:00,37.9,29.7,29.55,WNW,292,0.0,3.6,72,0.00,,,0.00,WUHU21623XXSP,2013-02-20 03:17:00,
2013-02-19 19:22:00,37.7,29.6,29.56,WNW,292,0.0,3.1,72,0.00,,,0.00,WUHU21623XXSP,2013-02-20 03:22:00,
2013-02-19 19:27:00,37.4,29.3,29.55,WNW,292,0.0,0.0,72,0.00,,,0.00,WUHU21623XXSP,2013-02-20 03:27:00,
2013-02-19 19:32:00,37.0,28.9,29.56,WNW,292,0.0,0.0,72,0.00,,,0.00,WUHU21623XXSP,2013-02-20 03:32:00,
2013-02-19 19:37:00,36.8,28.7,29.56,WNW,292,2.0,3.6,72,0.00,,,0.00,WUHU21623XXSP,2013-02-20 03:37:00,
2013-02-19 19:42:00,36.8,28.7,29.56,WNW,292,0.0,3.6,72,0.00,,,0.00,WUHU21623XXSP,2013-02-20 03:42:00,
2013-02-19 19:47:00,36.5,28.7,29.56,WNW,292,0.0,2.9,73,0.00,,,0.00,WUHU21623XXSP,2013-02-20 03:47:00,
2013-02-19 19:52:00,36.1,28.3,29.56,NNE,22,1.6,2.7,73,0.00,,,0.00,WUHU21623XXSP,2013-02-20 03:52:00,
2013-02-19 19:57:00,35.9,28.1,29.55,ENE,67,0.0,2.7,73,0.00,,,0.00,WUHU21623XXSP,2013-02-20 03:57:00,
2013-02-19 20:02:00,35.8,28.4,29.55,SSE,157,2.5,5.1,74,0.00,,,0.00,WUHU21623XXSP,2013-02-20 04:02:00,
2013-02-19 20:07:00,35.6,28.2,29.55,SSE,157,0.0,5.1,74,0.00,,,0.00,WUHU21623XXSP,2013-02-20 04:07:00,
2013-02-19 20:12:00,35.6,28.2,29.56,SSE,157,0.0,3.1,74,0.00,,,0.00,WUHU21623XXSP,2013-02-20 04:12:00,
2013-02-19 20:17:00,35.4,28.0,29.56,SE,135,2.5,2.9,74,0.00,,,0.00,WUHU21623XXSP,2013-02-20 04:17:00,
2013-02-19 20:22:00,35.4,28.0,29.56,SE,135,1.8,4.0,74,0.00,,,0.00,WUHU21623XXSP,2013-02-20 04:22:00,
2013-02-19 20:27:00,35.2,28.1,29.56,SE,135,0.0,4.0,75,0.00,,,0.00,WUHU21623XXSP,2013-02-20 04:27:00,
2013-02-19 20:32:00,35.2,28.1,29.57,SE,135,3.1,3.4,75,0.00,,,0.00,WUHU21623XXSP,2013-02-20 04:32:00,
2013-02-19 20:37:00,35.2,28.1,29.57,SE,135,1.8,4.5,75,0.00,,,0.00,WUHU21623XXSP,2013-02-20 04:37:00,
2013-02-19 20:42:00,35.2,28.1,29.57,SSE,157,2.0,8.7,75,0.00,,,0.00,WUHU21623XXSP,2013-02-20 04:42:00,
2013-02-19 20:47:00,35.2,28.1,29.57,SSE,157,0.9,8.7,75,0.00,,,0.00,WUHU21623XXSP,2013-02-20 04:47:00,
2013-02-19 20:52:00,35.2,28.1,29.57,SE,135,0.0,3.4,75,0.00,,,0.00,WUHU21623XXSP,2013-02-20 04:52:00,
2013-02-19 20:57:00,35.2,28.1,29.58,NNE,22,1.6,3.6,75,0.00,,,0.00,WUHU21623XXSP,2013-02-20 04:57:00,
2013-02-19 21:00:00,35.2,28.1,29.58,NNE,22,0.0,3.6,75,0.00,,,0.00,WUHU21623XXSP,2013-02-20 05:00:00,
2013-02-19 21:05:00,35.2,28.1,29.58,NNE,22,0.0,3.6,75,0.00,,,0.00,WUHU21623XXSP,2013-02-20 05:05:00,
2013-02-19 21:10:00,35.2,28.1,29.58,NE,45,2.9,3.1,75,0.00,,,0.00,WUHU21623XXSP,2013-02-20 05:10:00,
2013-02-19 21:15:00,35.2,28.1,29.58,NE,45,0.0,3.1,75,0.00,,,0.00,WUHU21623XXSP,2013-02-20 05:15:00,
2013-02-19 21:20:00,35.2,28.1,29.59,NE,45,2.7,4.0,75,0.00,,,0.00,WUHU21623XXSP,2013-02-20 05:20:00,
2013-02-19 21:25:00,35.2,28.1,29.59,NE,45,0.0,4.0,75,0.00,,,0.00,WUHU21623XXSP,2013-02-20 05:25:00,
2013-02-19 21:30:00,35.2,28.1,29.58,NE,45,0.0,3.6,75,0.00,,,0.00,WUHU21623XXSP,2013-02-20 05:30:00,
2013-02-19 21:35:00,35.2,28.4,29.59,NE,45,2.0,3.6,76,0.00,,,0.00,WUHU21623XXSP,2013-02-20 05:35:00,
2013-02-19 21:40:00,35.2,28.4,29.59,NE,45,1.8,3.6,76,0.00,,,0.00,WUHU21623XXSP,2013-02-20 05:40:00,
2013-02-19 21:45:00,35.2,28.4,29.59,NE,45,0.0,3.6,76,0.00,,,0.00,WUHU21623XXSP,2013-02-20 05:45:00,
2013-02-19 21:50:00,35.2,28.4,29.59,NE,45,0.0,3.1,76,0.00,,,0.00,WUHU21623XXSP,2013-02-20 05:50:00,
2013-02-19 21:55:00,35.2,28.7,29.59,NE,45,0.0,0.0,77,0.00,,,0.00,WUHU21623XXSP,2013-02-20 05:55:00,
2013-02-19 22:00:00,35.2,28.7,29.59,East,90,0.0,0.0,77,0.00,,,0.00,WUHU21623XXSP,2013-02-20 06:00:00,
2013-02-19 22:05:00,35.4,28.9,29.59,East,90,0.9,0.9,77,0.00,,,0.00,WUHU21623XXSP,2013-02-20 06:05:00,
2013-02-19 22:10:00,35.2,28.7,29.60,East,90,0.0,1.3,77,0.00,,,0.00,WUHU21623XXSP,2013-02-20 06:10:00,
2013-02-19 22:15:00,35.2,28.7,29.60,East,90,0.0,1.3,77,0.00,,,0.00,WUHU21623XXSP,2013-02-20 06:15:00,
2013-02-19 22:20:00,35.2,28.7,29.60,East,90,0.0,0.9,77,0.00,,,0.00,WUHU21623XXSP,2013-02-20 06:20:00,
2013-02-19 22:25:00,35.2,28.7,29.60,East,90,0.0,0.9,77,0.00,,,0.00,WUHU21623XXSP,2013-02-20 06:25:00,
2013-02-19 22:30:00,35.4,28.9,29.60,East,90,0.0,0.0,77,0.00,,,0.00,WUHU21623XXSP,2013-02-20 06:30:00,
2013-02-19 22:35:00,35.2,28.4,29.60,East,90,0.0,0.0,76,0.00,,,0.00,WUHU21623XXSP,2013-02-20 06:35:00,
2013-02-19 22:40:00,35.2,28.4,29.60,East,90,0.0,0.0,76,0.00,,,0.00,WUHU21623XXSP,2013-02-20 06:40:00,
2013-02-19 22:45:00,35.4,28.6,29.60,East,90,0.0,2.5,76,0.00,,,0.00,WUHU21623XXSP,2013-02-20 06:45:00,
2013-02-19 22:50:00,35.4,28.6,29.60,East,90,0.0,2.5,76,0.00,,,0.00,WUHU21623XXSP,2013-02-20 06:50:00,
2013-02-19 22:55:00,35.4,28.3,29.60,East,90,0.0,1.8,75,0.00,,,0.00,WUHU21623XXSP,2013-02-20 06:55:00,
2013-02-19 23:00:00,35.2,28.1,29.61,East,90,0.0,1.8,75,0.00,,,0.00,WUHU21623XXSP,2013-02-20 07:00:00,
2013-02-19 23:05:00,35.2,28.1,29.61,East,90,0.0,0.0,75,0.00,,,0.00,WUHU21623XXSP,2013-02-20 07:05:00,
2013-02-19 23:10:00,35.2,28.1,29.61,East,90,0.0,0.0,75,0.00,,,0.00,WUHU21623XXSP,2013-02-20 07:10:00,
2013-02-19 23:15:00,35.2,28.1,29.61,East,90,0.0,0.0,75,0.00,,,0.00,WUHU21623XXSP,2013-02-20 07:15:00,
2013-02-19 23:20:00,35.4,28.3,29.61,East,90,0.0,0.0,75,0.00,,,0.00,WUHU21623XXSP,2013-02-20 07:20:00,
2013-02-19 23:25:00,35.6,28.5,29.61,East,90,0.0,0.0,75,0.00,,,0.00,WUHU21623XXSP,2013-02-20 07:25:00,
2013-02-19 23:30:00,35.9,28.8,29.61,East,90,2.5,2.9,75,0.00,,,0.00,WUHU21623XXSP,2013-02-20 07:30:00,
2013-02-19 23:35:00,35.9,28.8,29.61,East,90,2.5,2.9,75,0.00,,,0.00,WUHU21623XXSP,2013-02-20 07:35:00,
2013-02-19 23:40:00,35.9,28.8,29.61,East,90,0.0,3.1,75,0.00,,,0.00,WUHU21623XXSP,2013-02-20 07:40:00,
2013-02-19 23:45:00,35.8,28.7,29.62,East,90,0.0,3.1,75,0.00,,,0.00,WUHU21623XXSP,2013-02-20 07:45:00,
2013-02-19 23:50:00,35.8,28.7,29.62,East,90,0.0,2.2,75,0.00,,,0.00,WUHU21623XXSP,2013-02-20 07:50:00,
2013-02-19 23:55:00,35.6,28.5,29.62,East,90,0.0,2.2,75,0.00,,,0.00,WUHU21623XXSP,2013-02-20 07:55:00,